date,batt_volt,AirTemp_C,Solar_kW,RH,Manual_BP,StationID,WS_ms,PTemp,WS_15min_max,Prog_Sig,Solar_Raw,Bar_mbar,Solar_MJ,Max_WS_2min,Pressure_Raw,Rain_mm,WD_15min_ave,Max_AirTemp_1min,WindDir,WS_15min_med,WS_15min_ave,Elevation_Correction
2018-05-01T00:08:33Z,13.02054,7.496956,0.0,96.45066,0,1156,3.1556,11.42707,4.116,43690,0.0,1014.615,0.0,3.606,1012.815,0,88.2741552257,7.429,85.17301,3.2144,3.19166863905,1.80078
2018-05-01T00:23:30Z,13.02082,7.427029,0.0,96.48013,0,1156,3.7044,11.28925,4.0768,43690,0.0,1014.615,0.0,3.704,1012.815,0,85.4614623937,7.427001,83.34114,2.8126,2.80373333333,1.80078
2018-05-01T00:38:33Z,13.02571,7.428662,0.0,96.61896,0,1156,1.9992,11.12884,4.0572,43690,0.0,1014.615,0.0,3.489,1012.815,0,96.8944877857,7.428001,92.50824,3.1164,3.05052544379,1.80078
2018-05-01T00:53:30Z,13.02653,7.294525,0.0,96.58788,0,1156,1.7444,11.03847,3.2536,43690,0.0,1014.615,0.0,2.293,1012.815,0,91.3979816969,7.396,69.2028,2.2932,2.25796666607,1.80078
2018-05-01T01:08:34Z,13.0264,7.534027,0.0,96.62654,0,1156,1.078,10.99329,2.646,43690,0.0,1014.326,0.0,1.274,1012.525,0,96.7958191818,7.535,77.07221,1.6464,1.60627218462,1.80078
2018-05-01T01:23:31Z,13.03833,7.299011,0.0,96.63093,0,1156,3.2732,10.92551,3.528,43690,0.0,1014.326,0.0,3.41,1012.525,0,97.7058540257,7.333,102.2143,2.3618,2.32084999821,1.80078
2018-05-01T01:38:35Z,13.03993,6.963097,0.0,96.70467,0,1156,2.1756,10.81029,3.6848,43690,0.0,1014.326,0.0,2.548,1012.525,0,89.665847312,7.234,69.55045,2.8812,2.7794887574,1.80078
2018-05-01T01:53:33Z,13.03451,7.405373,0.0,96.77609,0,1156,1.3916,10.81029,3.1948,43690,0.0,1014.326,0.0,3.195,1012.525,0,89.9035134972,7.406,77.82918,1.715,1.58269999762,1.80078
2018-05-01T02:08:35Z,13.02951,7.372406,0.0,96.71019,0,1156,2.058,10.87807,2.9596,43690,0.0,1014.77,0.0,2.45,1012.969,0,97.924431102,7.440001,91.7127,1.2152,1.10850177101,1.80078
2018-05-01T02:23:33Z,13.023,7.304146,0.0,96.64142,0,1156,1.9404,10.92551,2.9596,43690,0.0,1014.77,0.0,2.587,1012.969,0,91.2508246097,7.406,86.51508,2.156,2.16405,1.80078
2018-05-01T02:38:36Z,13.0175,6.895554,0.0,96.5696,0,1156,2.0188,10.9707,2.94,43690,0.0,1014.77,0.0,2.528,1012.969,0,93.5144937009,7.065001,82.42164,1.666,1.59363076627,1.80078
2018-05-01T02:53:33Z,13.02299,6.995327,0.0,96.59962,0,1156,1.6856,10.90066,2.3912,43690,0.0,1014.77,0.0,2.195,1012.969,0,95.4563550679,7.03,101.1104,1.764,1.75128333333,1.80078
2018-05-01T03:08:36Z,13.02893,6.827412,0.0,96.6027,0,1156,2.2344,10.85547,3.2928,43690,0.0,1014.589,0.0,3.214,1012.788,0,107.142842397,6.93,111.9395,2.548,2.37229585799,1.80078
2018-05-01T03:23:38Z,13.03416,6.62672,0.0,96.50647,0,1156,2.5676,10.7651,2.6656,43690,0.0,1014.589,0.0,2.528,1012.788,0,107.539168892,6.694,114.6404,1.9796,2.0051147929,1.80078
2018-05-01T03:38:34Z,13.04068,6.560341,0.0,96.57713,0,1156,2.1756,10.65214,3.0772,43690,0.0,1014.589,0.0,3.077,1012.788,0,109.739086904,6.594,94.67438,2.4108,2.37241666667,1.80078
2018-05-01T03:53:37Z,13.03519,6.458824,0.0,96.50965,0,1156,1.8032,10.53918,3.2536,43690,0.0,1014.589,0.0,2.097,1012.788,0,104.848389712,6.493,117.4832,2.0384,2.05022958521,1.80078
2018-05-01T04:08:33Z,13.03519,6.187729,0.0,96.50965,0,1156,0.3724,10.49399,2.8616,43690,0.0,1014.617,0.0,0.196,1012.816,0,145.210419272,6.188,257.3419,1.3034,1.27761666429,1.80078
2018-05-01T04:23:36Z,13.03519,6.086071,0.0,96.50965,0,1156,1.2348,10.4714,1.2152,43690,0.0,1014.617,0.0,0.647,1012.816,0,219.0289761,6.222,210.6662,0.4116,0.411020111834,1.80078
2018-05-01T04:38:39Z,13.04071,5.78109,0.0,96.50965,0,1156,0.1568,10.38103,2.4304,43690,0.0,1014.617,0.0,0.6860001,1012.816,0,255.07515911,5.984,225.2944,1.078,1.1657940787,1.80078
2018-05-01T04:53:35Z,13.04071,5.713314,0.0,96.44188,0,1156,0.2744,10.26807,1.1172,43690,0.0,1014.617,0.0,0.706,1012.816,0,200.976425289,5.747,191.3223,0.2352,0.239983332738,1.80078
2018-05-01T05:08:38Z,13.04623,5.713314,0.0,96.50965,0,1156,1.1368,10.13251,1.5484,43690,0.0,1013.641,0.0,1.548,1011.84,0,238.458734547,5.747,218.3653,0.784,0.790378686982,1.80078
2018-05-01T05:23:39Z,13.04623,5.679428,0.0,96.47577,0,1156,1.568,10.01955,1.9796,43690,0.0,1013.641,0.0,1.921,1011.84,0,254.822096362,5.747,273.9911,1.3524,1.32618933905,1.80078
2018-05-01T05:38:36Z,13.04623,5.577766,0.0,96.50965,0,1156,0.3332,9.883999,1.7248,43690,0.0,1013.641,0.0,0.725,1011.84,0,297.84919916,5.679,319.4158,0.784,0.848866655952,1.80078
2018-05-01T05:53:38Z,13.05175,5.611656,0.0,96.54354,0,1156,1.4896,9.793629,1.8032,43690,0.0,1013.641,0.0,1.764,1011.84,0,285.756924499,5.747,256.981,0.6272,0.722880471598,1.80078
2018-05-01T06:08:40Z,13.05175,5.509994,0.0,96.50965,0,1156,1.1172,9.750698,1.5288,43690,0.0,1013.316,0.0,1.215,1011.515,0,279.752086556,5.578,286.2135,0.9408,0.9397562,1.80078
2018-05-01T06:23:37Z,13.05175,5.509994,0.0,96.54354,0,1156,0.4508,9.682926,1.2936,43690,0.0,1013.316,0.0,0.0,1011.515,0,279.996053732,5.578,260.0366,0.3626,0.443449993452,1.80078
2018-05-01T06:38:39Z,13.05175,5.408333,0.0,96.54354,0,1156,0.8035999,9.682926,1.2348,43690,0.0,1013.316,0.0,1.176,1011.515,0,262.880411782,5.544,251.5676,0.8035999,0.774489928402,1.80078
2018-05-01T06:53:41Z,13.05175,5.408333,0.0,96.57742,0,1156,0.4312,9.682926,1.1956,43690,0.0,1013.316,0.0,0.51,1011.515,0,263.775151032,5.51,308.4445,0.49,0.456134907101,1.80078
2018-05-01T07:08:42Z,13.05175,5.54388,0.0,96.57742,0,1156,0.4116,9.660328,1.4896,43690,0.0,1013.478,0.0,0.98,1011.677,0,282.062665453,5.646,262.635,0.2744,0.383301770414,1.80078
2018-05-01T07:23:38Z,13.05175,5.408333,0.0,96.61131,0,1156,1.7836,9.637738,2.3716,43690,0.0,1013.478,0.0,2.372,1011.677,0,264.822703249,5.476,260.6862,1.6072,1.46789999405,1.80078
2018-05-01T07:38:40Z,13.05727,5.408333,0.0,96.61131,0,1156,1.6856,9.547367,2.6264,43690,0.0,1013.478,0.0,2.626,1011.677,0,252.540655465,5.408,244.2775,1.9208,1.90583905325,1.80078
2018-05-01T07:53:42Z,13.05175,5.306675,0.0,96.6452,0,1156,1.4896,9.502186,2.254,43690,0.0,1013.478,0.0,1.764,1011.677,0,252.756513515,5.408,256.4757,1.4308,1.44634082722,1.80078
2018-05-01T08:08:38Z,13.05745,5.442222,0.0,96.6452,0,1156,2.7244,9.459255,3.4888,43690,0.0,1013.478,0.0,3.136,1011.677,0,266.22904366,5.476,253.2999,2.2442,2.17221666667,1.80078
2018-05-01T08:23:41Z,13.05728,5.34082,0.0,96.67964,0,1156,2.2736,9.391483,3.1752,43690,0.0,1013.478,0.0,2.901,1011.677,0,264.789166813,5.409,259.4606,2.5676,2.54092544379,1.80078
2018-05-01T08:38:42Z,13.06279,5.409332,0.0,96.74898,0,1156,2.4696,9.323704,3.8808,43690,0.0,1013.478,0.0,3.273,1011.677,0,266.889317885,5.443,276.5957,2.8028,2.87354556213,1.80078
2018-05-01T08:53:43Z,13.0688,5.274956,0.0,96.68372,0,1156,2.1952,9.258182,3.0184,43690,0.0,1013.478,0.0,2.744,1011.677,0,268.644992199,5.412,275.6404,2.2148,2.27081656805,1.80078
2018-05-01T09:08:40Z,13.06385,5.345135,0.001928689,96.75662,0,1156,2.6068,9.213002,3.1752,43690,0.1350082,1013.128,9.643443e-06,2.862,1011.327,0,271.162117816,5.412,278.5425,2.6264,2.60971666667,1.80078
2018-05-01T09:23:42Z,13.06422,5.379558,0.003375205,96.79166,0,1156,0.784,9.19041,2.744,43690,0.2362643,1013.128,1.687602e-05,1.039,1011.327,0,287.456897329,5.414,284.7057,1.4896,1.4633893426,1.80078
2018-05-01T09:38:44Z,13.05891,5.379086,0.0120543,96.79064,0,1156,0.5488,9.258182,1.176,43690,0.8438013,1013.128,6.027152e-05,0.725,1011.327,0,265.661653311,5.482,266.7043,0.6664,0.67846152426,1.80078
2018-05-01T09:53:40Z,13.0638,5.410629,0.0173582,96.78565,0,1156,0.9211999,9.323704,1.5288,43690,1.215074,1013.128,8.679098e-05,1.529,1011.327,0,262.361017657,5.479,268.9041,0.8428,0.828683317857,1.80078
2018-05-01T10:08:42Z,13.05205,5.444645,0.01976906,96.7859,0,1156,1.5288,9.391483,2.0776,43690,1.383834,1013.972,9.884529e-05,2.078,1012.171,0,291.921039845,5.547,298.0427,0.9995999,1.03497276627,1.80078
2018-05-01T10:23:44Z,13.05185,5.510109,0.0429111,96.81488,0,1156,1.7052,9.459255,2.744,43690,3.003777,1013.972,0.0002145555,2.607,1012.171,0,286.426302433,5.578,273.3663,1.862,1.80296804556,1.80078
2018-05-01T10:38:40Z,13.05175,5.510014,0.06074874,96.84857,0,1156,1.9404,9.547367,2.5284,43690,4.252412,1013.972,0.0003037437,2.176,1012.171,0,280.050691376,5.612,276.1085,2.0874,2.06406666667,1.80078
2018-05-01T10:53:43Z,13.04624,5.916656,0.0829242,96.88246,0,1156,1.274,9.660328,1.9404,43690,5.804694,1013.972,0.000414621,1.313,1012.171,0,288.585413041,5.883,292.4691,1.274,1.29197632426,1.80078
2018-05-01T11:08:41Z,13.04624,5.679447,0.08966944,96.91634,0,1156,1.47,9.883999,1.764,43690,6.276861,1013.397,0.0004483472,1.764,1011.596,0,255.930359626,5.747,260.6141,0.8231999,0.789599985714,1.80078
2018-05-01T11:23:44Z,13.04072,6.221638,0.1759691,97.018,0,1156,2.45,10.15511,2.45,43690,12.31784,1013.397,0.0008798457,2.313,1011.596,0,273.945571113,6.222,270.8154,1.5288,1.63700591657,1.80078
2018-05-01T11:38:46Z,13.02968,5.984428,0.1316112,96.91634,0,1156,1.4896,10.42622,2.6852,43690,9.212786,1013.397,0.0006580562,1.705,1011.596,0,294.335489808,5.984,302.5741,1.372,1.4290603497,1.80078
2018-05-01T11:53:43Z,13.02968,5.984428,0.1513776,96.81467,0,1156,3.3124,10.69733,4.3904,43690,10.59643,1013.397,0.0007568881,4.39,1011.596,0,296.409052433,6.188,280.8001,1.6954,1.78289999524,1.80078
2018-05-01T12:08:45Z,13.0237,5.948269,0.136909,96.80989,0,1156,1.568,10.90066,3.9984,43690,9.58363,1013.316,0.000684545,2.293,1011.515,0,294.173432987,6.119,284.5154,2.1952,2.21155266272,1.80078
2018-05-01T12:23:47Z,13.02161,6.51865,0.1648493,96.7981,0,1156,1.7052,11.06107,3.0576,43690,11.53945,1013.316,0.0008242462,1.764,1011.515,0,298.281971553,6.587,298.7215,1.7052,1.74822721893,1.80078
2018-05-01T12:38:44Z,13.01542,6.513775,0.1311068,96.75407,0,1156,2.1756,11.26666,3.038,43690,9.177476,1013.316,0.000655534,2.783,1011.515,0,276.47304002,6.615,286.4232,2.548,2.5151,1.80078
2018-05-01T12:53:46Z,13.00962,6.581986,0.2925799,96.55176,0,1156,2.2932,11.49485,3.1752,43690,20.48059,1013.316,0.001462899,3.175,1011.515,0,279.344154749,6.718001,287.5806,2.3716,2.39549112426,1.80078
2018-05-01T13:08:43Z,12.99836,7.73122,0.5576852,96.68197,0,1156,2.8224,12.04836,3.332,43690,39.03796,1012.927,0.002788426,3.332,1011.127,0,277.243855819,7.799,268.4195,2.5676,2.64028333333,1.80078
2018-05-01T13:23:46Z,12.9646,7.527126,0.4776555,96.34151,0,1156,3.7632,13.21187,4.1552,43690,33.43588,1012.927,0.002388277,3.979,1011.127,0,283.032765957,7.629,279.5025,2.8812,2.9732852071,1.80078
2018-05-01T13:38:43Z,12.95906,7.151902,0.2776279,95.82811,0,1156,1.3916,13.94387,3.9984,43690,19.43395,1012.927,0.001388139,2.156,1011.127,0,271.266439172,7.355001,254.7395,2.3716,2.45898333333,1.80078
2018-05-01T13:53:46Z,12.95527,7.37941,0.4881199,95.91029,0,1156,2.4108,14.20594,2.5676,43690,34.16839,1012.927,0.002440599,2.548,1011.127,0,278.332486221,7.413001,285.3696,1.3132,1.3742035432,1.80078
2018-05-01T14:08:49Z,12.94917,6.935421,0.4341443,95.08994,0,1156,2.94,14.44317,3.8612,43690,30.3901,1012.653,0.002170722,3.861,1010.852,0,283.054152398,7.206,284.77,2.842,2.79120236686,1.80078
2018-05-01T14:23:45Z,12.94916,7.138527,0.4264347,94.92046,0,1156,3.7436,14.49061,4.4884,43690,29.85043,1012.653,0.002132173,4.273,1010.852,0,283.227320388,7.172001,273.1806,3.4006,3.3964,1.80078
2018-05-01T14:38:47Z,12.94916,7.273983,0.4457086,94.14159,0,1156,3.5084,14.51546,4.4688,43690,31.1996,1012.653,0.002228543,3.92,1010.852,0,278.036870343,7.409,270.2473,3.6064,3.62657988166,1.80078
2018-05-01T14:53:49Z,12.95468,7.578754,0.4447449,93.32886,0,1156,4.6844,14.58776,4.998,43690,31.13214,1012.653,0.002223724,4.998,1010.852,0,266.349207708,7.646,264.0442,4.4492,4.2454295858,1.80078
2018-05-01T15:08:45Z,12.96019,7.003071,0.3859595,92.8209,0,1156,3.2732,14.54031,4.7236,43690,27.01717,1012.969,0.001929798,4.077,1011.169,0,274.592113831,7.139001,283.2067,3.9592,3.9697,1.80078
2018-05-01T15:23:48Z,12.96019,7.511028,0.4167977,92.4484,0,1156,3.3124,14.34828,4.3708,43690,29.17584,1012.969,0.002083989,3.998,1011.169,0,281.788127756,7.646,290.5159,3.724,3.69976094675,1.80078
2018-05-01T15:38:50Z,12.95468,6.528976,0.299227,91.83885,0,1156,3.3712,14.1585,4.5864,43690,20.94589,1012.969,0.001496135,4.449,1011.169,0,288.018458258,6.8,282.5575,3.822,3.73153846154,1.80078
2018-05-01T15:53:46Z,12.97236,6.499008,0.257331,92.21909,0,1156,4.1356,13.65921,4.6648,43690,18.01317,1012.969,0.001286655,4.665,1011.169,0,286.839100626,6.633,288.1597,3.5868,3.66508333333,1.80078
2018-05-01T16:08:49Z,12.9808,6.813842,0.620811,92.03562,0,1156,2.5676,13.32936,4.1944,43690,43.45677,1012.745,0.003104055,3.116,1010.944,0,286.893332628,6.644,296.6632,3.038,3.07777988166,1.80078
2018-05-01T16:23:51Z,12.95905,7.899681,0.7239778,90.48094,0,1156,2.1756,13.70665,4.0768,43690,50.67845,1012.745,0.003619889,3.332,1010.944,0,290.26991809,7.832,276.5919,2.5872,2.6422887574,1.80078
2018-05-01T16:38:48Z,12.95652,7.482773,0.4336863,89.27574,0,1156,4.606,14.1585,4.9588,43690,30.35804,1012.745,0.002168431,4.959,1010.944,0,269.530084828,7.586001,272.6598,2.5578,2.9015,1.80078
2018-05-01T16:53:50Z,12.95478,7.680496,0.3310294,88.52046,0,1156,3.8416,14.32342,4.7628,43690,23.17206,1012.745,0.001655147,4.39,1010.944,0,266.744135986,7.816001,258.8035,4.1356,4.12063905325,1.80078
2018-05-01T17:08:52Z,12.94365,7.138527,0.3156098,88.35087,0,1156,3.1948,14.34828,4.4492,43690,22.09269,1012.238,0.001578049,3.822,1010.437,0,263.652781122,7.308001,278.7106,3.8024,3.79126627219,1.80078
2018-05-01T17:23:49Z,12.95468,7.17239,0.3445207,87.91065,0,1156,2.744,14.1811,3.5868,43690,24.11645,1012.238,0.001722603,2.94,1010.437,0,300.625999967,7.376001,290.8285,2.5382,2.541,1.80078
2018-05-01T17:38:51Z,12.95468,6.935974,0.1961118,88.38593,0,1156,3.6848,13.91902,4.214,43690,13.72782,1012.238,0.0009805588,4.214,1010.437,0,295.429289197,6.901001,284.5569,2.744,2.78969467456,1.80078
2018-05-01T17:53:48Z,12.96877,6.910347,0.225068,88.33371,0,1156,1.7836,13.49428,3.9592,43690,15.75476,1012.238,0.00112534,2.705,1010.437,0,298.290374793,7.046001,302.234,2.499,2.50903333155,1.80078
2018-05-01T18:08:51Z,12.97001,6.883042,0.377412,88.54933,0,1156,1.2544,13.32936,2.9008,43690,26.41884,1011.158,0.00188706,2.901,1009.358,0,294.41585801,7.052001,273.3908,1.5288,1.52474082071,1.80078
2018-05-01T18:23:49Z,12.96457,7.93359,0.4135641,87.77098,0,1156,1.7836,13.51687,3.234,43690,28.94949,1011.158,0.002067821,3.234,1009.358,0,292.106033965,7.866,322.795,2.0972,2.1378,1.80078
2018-05-01T18:38:52Z,12.95256,6.74308,0.2645823,87.38924,0,1156,0.6468,13.77668,3.3908,43690,18.52076,1011.158,0.001322911,2.391,1009.358,0,298.836200999,7.115,299.554,1.96,1.98342721893,1.80078
2018-05-01T18:53:49Z,12.96263,7.486481,0.3272327,87.62306,0,1156,2.4696,13.72924,3.1752,43690,22.90629,1011.158,0.001636163,2.862,1009.358,0,295.95143117,7.588,281.9156,1.8816,1.88754999821,1.80078
2018-05-01T19:08:52Z,12.96792,6.978031,0.3108674,87.48685,0,1156,2.1952,13.70665,3.528,43690,21.76072,1011.197,0.001554337,3.293,1009.396,0,289.670045302,7.080001,296.2939,2.45,2.48200946746,1.80078
2018-05-01T19:23:49Z,12.96873,6.744797,0.2327838,88.27314,0,1156,1.666,13.49428,3.6064,43690,16.29487,1011.197,0.001163919,3.45,1009.396,0,292.585199922,6.846,285.6642,2.45,2.43075,1.80078
2018-05-01T19:38:52Z,12.97002,6.408924,0.2371477,89.02383,0,1156,2.7244,13.21187,4.1944,43690,16.60034,1011.197,0.001185738,2.842,1009.396,0,292.562384546,6.544,288.592,2.7244,2.75258224852,1.80078
2018-05-01T19:53:50Z,12.99216,7.018955,0.2443788,89.15986,0,1156,3.5084,12.92947,3.5868,43690,17.10652,1011.197,0.001221894,3.332,1009.396,0,284.298967962,7.256001,284.4809,2.1756,2.23614999881,1.80078
2018-05-01T20:08:53Z,12.99216,6.544701,0.1894255,89.83737,0,1156,2.5088,12.67418,3.822,43690,13.25978,1011.11,0.0009471272,3.293,1009.309,0,292.771271335,6.511,289.8203,2.9008,2.8771408284,1.80078
2018-05-01T20:23:50Z,13.00319,7.018955,0.1865376,89.93899,0,1156,2.9204,12.39402,2.94,43690,13.05763,1011.11,0.0009326878,2.626,1009.309,0,283.377251595,7.019001,278.5162,2.1462,2.14118333333,1.80078
2018-05-01T20:38:53Z,13.00319,7.018955,0.1990699,89.80349,0,1156,1.47,12.23362,3.0184,43690,13.93489,1011.11,0.0009953494,2.313,1009.309,0,283.514725478,7.154,289.1469,2.058,2.05475266272,1.80078
2018-05-01T20:53:50Z,12.98664,6.138195,0.2482349,89.97287,0,1156,2.2736,12.20877,2.5284,43690,17.37644,1011.11,0.001241174,2.528,1009.309,0,239.207127902,6.138,225.3624,1.7346,1.74194999881,1.80078
2018-05-01T21:08:54Z,12.98664,6.680202,0.1489409,90.51488,0,1156,3.0184,12.11614,3.6064,43690,10.42586,1011.028,0.0007447046,3.587,1009.228,0,257.938929845,6.714,266.3942,2.5872,2.61097514793,1.80078
2018-05-01T21:23:51Z,12.98112,6.510826,0.1383367,90.81975,0,1156,2.156,12.14099,3.9396,43690,9.68357,1011.028,0.0006916835,3.94,1009.228,0,259.371167902,6.308,280.1517,2.8028,2.7293,1.80078
2018-05-01T21:38:54Z,12.98664,6.10432,0.0713374,90.8875,0,1156,2.156,12.02351,3.7436,43690,4.993618,1011.028,0.000356687,3.43,1009.228,0,283.328307383,6.138,276.087,2.6264,2.57780591716,1.80078
2018-05-01T21:53:51Z,12.99786,5.968819,0.04000678,91.42951,0,1156,2.548,11.6801,4.018,43690,2.800475,1011.028,0.0002000339,3.763,1009.228,0,287.405325353,6.037,291.985,2.6852,2.7412,1.80078
2018-05-01T22:08:54Z,13.01995,5.904072,0.04530889,92.01142,0,1156,1.96,11.26666,4.3316,43690,3.171622,1010.904,0.0002265444,3.175,1009.103,0,292.221800421,5.971,309.0096,3.0576,2.96899408284,1.80078
2018-05-01T22:23:52Z,13.0208,5.839634,0.05495094,92.15358,0,1156,2.0188,10.9707,3.0772,43690,3.846566,1010.904,0.0002747547,2.685,1009.103,0,292.88775635,5.975,273.0941,1.9796,1.97878333333,1.80078
2018-05-01T22:38:55Z,13.0238,6.219097,0.09207148,92.40431,0,1156,1.7052,10.7877,3.136,43690,6.445004,1010.904,0.0004603574,2.43,1009.103,0,293.529319379,6.219,303.4717,1.9992,2.00592662722,1.80078
2018-05-01T22:53:52Z,13.02415,5.88269,0.04338807,92.27368,0,1156,3.1556,10.56177,3.8416,43690,3.037165,1010.904,0.0002169403,3.156,1009.103,0,299.748297153,5.95,308.1313,2.0482,2.1080499994,1.80078
2018-05-01T23:08:56Z,13.02968,6.018295,0.02410471,92.5449,0,1156,2.3912,10.31325,4.7236,43690,1.68733,1011.282,0.0001205235,3.371,1009.481,0,296.534679186,6.018,296.2463,2.8812,2.8930295858,1.80078
2018-05-01T23:23:53Z,13.02968,5.645542,0.004338883,92.81598,0,1156,1.764,10.04215,3.8416,43690,0.3037218,1011.282,2.169442e-05,2.94,1009.481,0,294.963535428,5.713,297.8583,2.401,2.46936666667,1.80078
2018-05-01T23:38:56Z,13.05175,5.272785,0.000482091,93.08708,0,1156,1.96,9.682926,3.038,43690,0.03374637,1011.282,2.410455e-06,2.234,1009.481,0,301.661540785,5.476,304.0657,1.8228,1.78522366627,1.80078
2018-05-01T23:53:53Z,13.07382,5.205013,0.0,93.45984,0,1156,2.1952,9.145222,2.5872,43690,0.0,1011.282,0.0,2.47,1009.481,0,309.410162583,5.171,332.8651,2.0286,1.98555,1.80078
2018-05-02T00:08:56Z,13.08688,5.042599,0.0,93.67777,0,1156,1.5876,8.612042,2.5676,43690,0.0,1011.561,0.0,1.94,1009.76,0,320.160009652,5.042,317.348,1.5876,1.59734200947,1.80078
2018-05-02T00:23:53Z,13.11047,4.913975,0.0,93.86174,0,1156,0.784,8.126301,2.1952,43690,0.0,1011.561,0.0,1.842,1009.76,0,265.850089714,5.083,270.4181,1.2152,1.154533325,1.80078
2018-05-02T00:38:56Z,13.11136,4.779636,0.0,94.10165,0,1156,0.882,7.706082,2.1756,43690,0.0,1011.561,0.0,1.607,1009.76,0,278.040421399,4.915,264.3605,1.4504,1.45608283846,1.80078
2018-05-02T00:53:54Z,13.12242,4.338982,0.0,94.1695,0,1156,0.0392,7.267788,1.1956,43690,0.0,1011.561,0.0,0.431,1009.76,0,266.967047509,4.508,144.8881,0.5684,0.568983321429,1.80078
2018-05-02T01:08:56Z,13.12794,4.203388,0.0,94.27118,0,1156,0.0196,6.940197,0.5096,43690,0.0,1011.374,0.0,0.51,1009.573,0,179.424208449,4.407,263.9756,0.0,0.0644828402367,1.80078
2018-05-02T01:23:54Z,13.13346,4.372883,0.0,94.33898,0,1156,0.6468,6.655529,1.5288,43690,0.0,1011.374,0.0,0.6860001,1009.573,0,257.468163052,4.441,257.9105,0.4214,0.451149993452,1.80078
2018-05-02T01:38:57Z,13.13346,4.711864,0.0,94.57627,0,1156,2.2344,6.461231,3.5476,43690,0.0,1011.374,0.0,2.96,1009.573,0,296.841031236,4.746,301.5214,1.4308,1.58156922367,1.80078
2018-05-02T01:53:55Z,13.12794,4.745762,0.0,94.67796,0,1156,4.1748,6.504162,4.5276,43690,0.0,1011.374,0.0,4.508,1009.573,0,296.566648636,4.78,292.7848,2.6068,2.68741666667,1.80078
2018-05-02T02:08:58Z,13.12242,4.949154,0.0,94.81356,0,1156,4.0572,6.655529,5.5272,43690,0.0,1012.35,0.0,4.861,1010.549,0,292.847848202,4.983,294.9749,3.8808,3.82211597633,1.80078
2018-05-02T02:23:54Z,13.12242,5.050846,0.0,95.01695,0,1156,6.7032,6.852085,6.7032,43690,0.0,1012.35,0.0,6.135,1010.549,0,281.660125385,5.085,282.3634,3.5378,3.98498332738,1.80078
2018-05-02T02:38:58Z,13.10034,5.220341,0.0,94.94915,0,1156,3.822,7.267788,7.84,43690,0.0,1012.35,0.0,4.978,1010.549,0,291.985924665,5.254,302.099,4.9784,5.17613959172,1.80078
2018-05-02T02:53:56Z,13.09482,5.152542,0.0,94.98305,0,1156,5.0764,7.597637,5.8604,43690,0.0,1012.35,0.0,5.86,1010.549,0,289.676962799,5.22,288.1878,4.0572,3.97681666667,1.80078
2018-05-02T03:08:59Z,13.09482,5.18644,0.0,94.98305,0,1156,4.4492,7.706082,6.2916,43690,0.0,1012.838,0.0,6.135,1011.037,0,290.846420307,5.254,293.3624,4.6844,4.69379408284,1.80078
2018-05-02T03:23:56Z,13.10034,5.118645,0.0,94.94915,0,1156,4.41,7.816784,5.5664,43690,0.0,1012.838,0.0,3.9,1011.037,0,286.029807136,5.153,288.0675,3.6064,3.71163333333,1.80078
2018-05-02T03:38:59Z,13.10034,4.983051,0.0,95.01695,0,1156,3.6848,7.685749,5.586,43690,0.0,1012.838,0.0,4.273,1011.037,0,288.582524813,5.085,281.6654,3.9984,4.03098934911,1.80078
2018-05-02T03:53:56Z,13.10586,4.983051,0.0,95.05085,0,1156,4.018,7.552448,5.5272,43690,0.0,1012.838,0.0,4.763,1011.037,0,288.230011245,5.051,279.8844,4.2532,4.20711666667,1.80078
2018-05-02T04:08:58Z,13.10586,4.915253,0.0,95.08474,0,1156,4.4492,7.532116,5.5076,43690,0.0,1013.001,0.0,4.92,1011.2,0,288.657486422,5.051,281.0156,4.3316,4.32481655621,1.80078
2018-05-02T04:24:00Z,13.11138,4.881355,0.0,95.18644,0,1156,4.4296,7.398822,6.37,43690,0.0,1013.001,0.0,4.253,1011.2,0,291.855188043,4.847,306.4793,4.3316,4.17190059172,1.80078
2018-05-02T04:38:57Z,13.11138,4.915253,0.0,95.28814,0,1156,3.9788,7.267788,6.5856,43690,0.0,1013.001,0.0,5.135,1011.2,0,293.77544862,4.949,282.4837,4.2924,4.31783333333,1.80078
2018-05-02T04:53:59Z,13.11138,4.847458,0.0,95.32204,0,1156,3.1164,7.202266,5.3704,43690,0.0,1013.001,0.0,5.233,1011.2,0,295.810834566,4.983,278.1515,4.0768,4.02298698225,1.80078
2018-05-02T05:09:01Z,13.11138,4.881355,0.0,95.28814,0,1156,3.2928,7.136746,5.194,43690,0.0,1012.675,0.0,4.096,1010.875,0,299.736729907,4.915,291.4129,3.2144,3.26403786982,1.80078
2018-05-02T05:23:58Z,13.11138,4.983051,0.0,95.38983,0,1156,3.3712,7.159344,3.6848,43690,0.0,1012.675,0.0,3.371,1010.875,0,296.509900107,4.983,316.1786,2.5774,2.5823,1.80078
2018-05-02T05:39:00Z,13.11138,4.983051,0.0,95.38983,0,1156,2.4696,7.224858,3.9984,43690,0.0,1012.675,0.0,3.861,1010.875,0,299.282677694,5.017,309.5119,2.5676,2.54788402367,1.80078
2018-05-02T05:54:02Z,13.11138,5.084747,0.0,95.45762,0,1156,3.8416,7.136746,6.0368,43690,0.0,1012.675,0.0,6.037,1010.875,0,301.618137131,5.153,307.7068,3.5672,3.53229112426,1.80078
2018-05-02T06:08:58Z,13.11138,5.152542,0.0,95.42373,0,1156,3.8416,7.136746,6.3112,43690,0.0,1012.187,0.0,4.802,1010.386,0,301.224073378,5.288,311.0041,3.9298,3.94333333333,1.80078
2018-05-02T06:24:01Z,13.11138,5.118645,0.0,95.38983,0,1156,3.3712,7.179676,5.194,43690,0.0,1012.187,0.0,4.292,1010.386,0,296.590148947,5.22,285.7329,3.7632,3.73119053254,1.80078
2018-05-02T06:39:03Z,13.1169,5.152542,0.0,95.49152,0,1156,3.234,7.093822,4.9392,43690,0.0,1012.187,0.0,4.39,1010.386,0,296.376675145,5.153,290.8834,3.3712,3.34707692308,1.80078
2018-05-02T06:53:59Z,13.12242,5.050846,0.0,95.42373,0,1156,3.6848,7.028302,5.0176,43690,0.0,1012.187,0.0,5.018,1010.386,0,291.276582542,5.119,310.5709,3.8514,3.73275,1.80078
2018-05-02T07:09:02Z,13.12242,4.881355,0.0,95.38983,0,1156,3.3908,6.940197,4.1944,43690,0.0,1011.618,0.0,3.92,1009.817,0,294.941146643,4.881,287.562,2.9008,2.90868639053,1.80078
2018-05-02T07:24:04Z,13.12242,4.915253,0.0,95.49152,0,1156,2.1364,6.831753,4.214,43690,0.0,1011.618,0.0,4.214,1009.817,0,296.19242373,4.949,302.9654,2.8028,2.81694911243,1.80078